Simultaneous Nadir Overpasses (SNOs) Predictions

Prediction of SNOs between GOES-14 and AQUA Satellite Orbit:

Table of predicted SNOs for the next 14.0 days since TLE Epoch: 8/12/2023
Index Date Time (GOES-14) GOES-14 Lat,Lon AQUA Lat,Lon Distance(km) Time Diff (sec)
1 08/12/2023 21:05:31 0.46,-108.55 0.55,-108.08 53.22 80
2 08/14/2023 20:51:09 0.46,-108.54 1.30,-104.57 451.49 80
3 08/15/2023 09:09:11 -0.47,-108.64 -0.25,-109.59 108.26 80
4 08/17/2023 08:57:29 -0.47,-108.64 -1.04,-106.09 290.55 80
5 08/17/2023 21:15:39 0.49,-108.54 -0.04,-111.13 294.45 80
6 08/19/2023 21:03:55 0.49,-108.54 0.66,-107.61 104.94 80
7 08/20/2023 09:21:57 -0.50,-108.64 0.37,-112.63 454.30 80
8 08/22/2023 09:07:33 -0.50,-108.64 -0.37,-109.12 54.99 80
9 08/24/2023 08:55:49 -0.50,-108.63 -1.14,-105.61 344.02 80
10 08/24/2023 21:13:58 0.51,-108.53 0.04,-110.65 241.01 80
